Retour au catalogue

ATLAS 5 CENTAUR DEB

ActifHEO
NORAD 46604·DEBRIS·🇺🇸 United States

Lancé Oct 17, 2018 depuis Cape Canaveral Space Force Station

Loading…

Prochains Passages (prochaines 24 heures)

TLE

FraisSource: Space-Track

Époque: Sep 12, 2026, 22:49 UTC

1 46604U 18079CC  26255.95070050 -.00000150  00000-0  00000-0 0  9998
2 46604  13.5543  46.9090 4592733 282.7899  31.2182  1.74538051 43434

Suivez ATLAS 5 CENTAUR DEB en temps réel avec AllMySat

Download on the App Store